This is the latest recevied weather packets stored in our database for station/object JE7UPL-13. If no packets are shown the sender has not sent any weather packets the latest 10 day(s).
| Time | Temp. | Humidity | Pressure | Rain* | Wind** | Luminosity | Snow |
|---|---|---|---|---|---|---|---|
| 1788092106 | 21.11° C | 67% | 1008.7 hPa | 0 mm | - | - | - |
| 1788091207 | 21.67° C | 67% | 1008.9 hPa | 0 mm | - | - | - |
| 1788089407 | 21.67° C | 65% | 1008.9 hPa | 0 mm | - | - | - |
| 1788088506 | 21.11° C | 66% | 1008.5 hPa | 0 mm | - | - | - |
| 1788087607 | 21.11° C | 65% | 1008.5 hPa | 0 mm | - | - | - |
| 1788086706 | 21.11° C | 65% | 1008.3 hPa | 0 mm | - | - | - |
| 1788085806 | 21.11° C | 67% | 1008.2 hPa | 0 mm | - | - | - |
| 1788084906 | 21.67° C | 67% | 1008.1 hPa | 0 mm | - | - | - |
| 1788084007 | 21.67° C | 67% | 1007.7 hPa | 0 mm | - | - | - |
| 1788083106 | 21.67° C | 67% | 1007.7 hPa | 0 mm | - | - | - |
| 1788082207 | 21.67° C | 67% | 1007.6 hPa | 0 mm | - | - | - |
| 1788081306 | 21.67° C | 68% | 1007.7 hPa | 0 mm | - | - | - |
| 1788080407 | 21.67° C | 68% | 1007.4 hPa | 0 mm | - | - | - |
| 1788079506 | 21.67° C | 68% | 1007.5 hPa | 0 mm | - | - | - |
| 1788078607 | 21.67° C | 69% | 1007.5 hPa | 0 mm | - | - | - |
| 1788077706 | 21.67° C | 70% | 1007.3 hPa | 0 mm | - | - | - |
| 1788076807 | 21.67° C | 70% | 1007.2 hPa | 0 mm | - | - | - |
| 1788075907 | 21.67° C | 71% | 1007.1 hPa | 0 mm | - | - | - |
| 1788075007 | 22.22° C | 68% | 1006.8 hPa | 0 mm | - | - | - |
| 1788074106 | 22.22° C | 67% | 1006.7 hPa | 0 mm | - | - | - |
| 1788073207 | 22.22° C | 68% | 1006.7 hPa | 0 mm | - | - | - |
| 1788072306 | 22.78° C | 64% | 1006.5 hPa | 0 mm | - | - | - |
| 1788071407 | 23.33° C | 65% | 1006.5 hPa | 0 mm | - | - | - |
| 1788070506 | 23.33° C | 64% | 1006.3 hPa | 0 mm | - | - | - |
| 1788069606 | 23.33° C | 62% | 1006.4 hPa | 0 mm | - | - | - |
* Rain latest hour (hover to see other rain measurements)
** Current wind speed in m/s (hover to see current wind gust speed)